FW7166 Weather Reports


time (UTC)temp
C
wind
direction
speed
KPH
gust
KPH
rain 1hr
cm
rain 24hr
cm
rain mn
cm
humidity
%
barometer
mb
20260507074139 10 249 1.6 17.7 0.00 0.00 0.00 34 1017.0
20260507073123 10 330 1.6 17.7 0.00 0.00 0.00 39 1017.0
20260507072622 10 338 0.0 17.7 0.00 0.00 0.00 39 1017.1
20260507072122 10 340 1.6 17.7 0.00 0.00 0.00 39 1017.1
20260507071621 10 165 0.0 17.7 0.00 0.00 0.00 42 1017.3
20260507071120 9 298 1.6 17.7 0.00 0.00 0.00 44 1017.1
20260507070619 9 298 0.0 17.7 0.00 0.00 0.00 46 1017.2
20260507065603 8 297 0.0 17.7 0.00 0.00 0.00 48 1016.9
20260507065103 8 252 1.6 17.7 0.00 0.00 0.00 47 1017.1
20260507064603 8 228 1.6 17.7 0.00 0.00 0.00 49 1017.0
20260507064102 8 231 1.6 17.7 0.00 0.00 0.00 50 1016.9
20260507063602 8 227 1.6 17.7 0.00 0.00 0.00 50 1016.7
20260507063101 9 227 0.0 17.7 0.00 0.00 0.00 55 1017.0
20260507062601 8 224 0.0 17.7 0.00 0.00 0.00 57 1017.0
20260507062101 8 224 0.0 17.7 0.00 0.00 0.00 57 1016.6
20260507061044 8 234 0.0 17.7 0.00 0.00 0.00 59 1016.9
20260507060544 8 232 0.0 17.7 0.00 0.00 0.00 59 1017.0
20260507060044 7 232 0.0 17.7 0.00 0.00 0.00 60 1017.1
20260507055544 7 232 0.0 17.7 0.00 0.00 0.00 61 1017.0
20260507055044 7 232 0.0 17.7 0.00 0.00 0.00 63 1016.7
20260507054544 6 232 0.0 17.7 0.00 0.00 0.00 67 1016.9
20260507054043 6 232 0.0 17.7 0.00 0.00 0.00 66 1017.0
20260507053543 6 232 0.0 17.7 0.00 0.00 0.00 69 1016.9
20260507053043 6 232 0.0 17.7 0.00 0.00 0.00 71 1017.0
20260507052543 5 232 0.0 17.7 0.00 0.00 0.00 73 1017.0
20260507052043 5 232 0.0 17.7 0.00 0.00 0.00 73 1016.9
20260507051543 4 232 0.0 17.7 0.00 0.00 0.00 75 1017.1
20260507050527 3 232 0.0 17.7 0.00 0.00 0.00 75 1016.7
20260507050026 3 232 0.0 17.7 0.00 0.00 0.00 76 1017.0
20260507045526 3 232 0.0 17.7 0.00 0.00 0.00 77 1017.1
20260507045025 3 232 0.0 17.7 0.00 0.00 0.00 77 1017.2
20260507044009 3 232 0.0 17.7 0.00 0.00 0.00 81 1016.9
20260507043509 2 232 0.0 17.7 0.00 0.00 0.00 81 1016.9
20260507043008 2 232 0.0 17.7 0.00 0.00 0.00 81 1016.8
20260507042507 2 232 0.0 17.7 0.00 0.00 0.00 81 1016.8
20260507042006 2 232 0.0 17.7 0.00 0.00 0.00 82 1016.7
20260507041505 2 232 0.0 17.7 0.00 0.00 0.00 82 1016.8
20260507041005 2 232 0.0 17.7 0.00 0.00 0.00 82 1016.9
20260507040505 2 232 0.0 17.7 0.00 0.00 0.00 81 1016.9
20260507040004 2 232 0.0 17.7 0.00 0.00 0.00 81 1016.8
20260507035504 2 232 0.0 17.7 0.00 0.00 0.00 80 1016.6
20260507035004 2 232 0.0 17.7 0.00 0.00 0.00 80 1016.6
20260507034505 2 232 0.0 17.7 0.00 0.00 0.00 80 1016.8
20260507034004 2 232 0.0 17.7 0.00 0.00 0.00 80 1016.2
20260507033504 2 232 0.0 17.7 0.00 0.00 0.00 80 1016.5
20260507033004 2 232 0.0 17.7 0.00 0.00 0.00 81 1016.4
20260507032504 2 233 1.6 17.7 0.00 0.00 0.00 82 1016.1
20260507032002 2 223 1.6 17.7 0.00 0.00 0.00 85 1016.4
20260507031501 1 213 0.0 17.7 0.00 0.00 0.00 87 1016.3
20260507031000 1 225 1.6 17.7 0.00 0.00 0.00 88 1016.2
20260507030459 1 230 0.0 17.7 0.00 0.00 0.00 87 1016.2
20260507025959 1 230 1.6 17.7 0.00 0.00 0.00 88 1016.3
20260507025458 1 210 1.6 17.7 0.00 0.00 0.00 88 1016.4
20260507024958 1 209 1.6 17.7 0.00 0.00 0.00 87 1016.2
20260507023943 1 209 0.0 17.7 0.00 0.00 0.00 87 1016.2
20260507023443 1 209 0.0 17.7 0.00 0.00 0.00 87 1016.3
20260507021912 1 209 0.0 17.7 0.00 0.00 0.00 85 1015.9
20260507021412 1 209 0.0 17.7 0.00 0.00 0.00 85 1016.3
20260507020912 1 209 0.0 17.7 0.00 0.00 0.00 84 1016.2
20260507020412 1 209 0.0 17.7 0.00 0.00 0.00 84 1016.1
20260507015911 2 209 0.0 17.7 0.00 0.00 0.00 83 1016.2
20260507015411 2 209 0.0 17.7 0.00 0.00 0.00 83 1016.1
20260507014911 2 209 0.0 17.7 0.00 0.00 0.00 82 1016.4
20260507014411 2 209 0.0 17.7 0.00 0.00 0.00 82 1016.1
20260507013911 2 209 0.0 17.7 0.00 0.00 0.00 82 1016.2
20260507013410 2 209 0.0 17.7 0.00 0.00 0.00 82 1016.0
20260507012910 3 209 0.0 17.7 0.00 0.00 0.00 81 1015.9
20260507012409 3 209 0.0 17.7 0.00 0.00 0.00 80 1016.0
20260507011353 3 209 0.0 17.7 0.00 0.00 0.00 80 1016.0
20260507010853 3 209 0.0 17.7 0.00 0.00 0.00 80 1016.1
20260507010352 3 209 0.0 17.7 0.00 0.00 0.00 79 1015.9
20260507005852 3 209 0.0 17.7 0.00 0.00 0.00 79 1015.9
20260507005352 3 209 0.0 17.7 0.00 0.00 0.00 79 1015.6
20260507004851 4 209 0.0 17.7 0.00 0.00 0.00 78 1015.9
20260507004351 4 209 0.0 17.7 0.00 0.00 0.00 77 1015.7
20260507003850 4 209 0.0 17.7 0.00 0.00 0.00 77 1015.6
20260507002835 5 209 0.0 17.7 0.00 0.00 0.00 76 1015.4
20260507002335 5 209 0.0 17.7 0.00 0.00 0.00 77 1015.4
20260507001834 5 142 0.0 17.7 0.00 0.00 0.00 77 1015.5
20260507001334 5 116 0.0 17.7 0.00 0.00 0.00 76 1015.9
20260507000321 5 116 0.0 17.7 0.00 0.00 0.00 75 1015.8
20260506235306 6 116 0.0 17.7 0.00 0.00 0.00 74 1015.4
20260506234802 6 116 0.0 17.7 0.00 0.00 0.00 74 1015.3
20260506234301 6 116 0.0 17.7 0.00 0.00 0.00 74 1015.5
20260506233800 6 116 0.0 17.7 0.00 0.00 0.00 74 1015.3
20260506233300 6 116 0.0 17.7 0.00 0.00 0.00 74 1015.7
20260506232800 6 116 0.0 17.7 0.00 0.00 0.00 74 1015.7
20260506232300 6 116 0.0 17.7 0.00 0.00 0.00 74 1015.5
20260506231800 6 117 0.0 17.7 0.00 0.00 0.00 73 1015.7
20260506230744 6 117 0.0 17.7 0.00 0.00 0.00 73 1015.5
20260506230244 6 117 0.0 17.7 0.00 0.00 0.00 72 1015.3
20260506225744 6 117 0.0 17.7 0.00 0.00 0.00 71 1015.3
20260506225244 6 117 0.0 17.7 0.00 0.00 0.00 72 1015.4
20260506224229 6 117 0.0 17.7 0.00 0.00 0.00 70 1015.4
20260506223213 6 94 0.0 17.7 0.00 0.00 0.00 70 1015.4
20260506222712 6 99 0.0 17.7 0.00 0.00 0.00 70 1015.0
20260506221656 6 114 0.0 17.7 0.00 0.00 0.00 71 1015.3
20260506221156 6 119 0.0 17.7 0.00 0.00 0.00 71 1015.4
20260506220655 6 145 1.6 17.7 0.00 0.00 0.00 72 1015.4
20260506220154 6 105 1.6 17.7 0.00 0.00 0.00 73 1015.1
20260506215654 6 76 1.6 17.7 0.00 0.00 0.00 74 1015.0
20260506214639 6 142 0.0 17.7 0.00 0.00 0.00 73 1014.8
20260506214139 7 142 0.0 17.7 0.00 0.00 0.00 74 1014.9
20260506213639 7 142 0.0 17.7 0.00 0.00 0.00 73 1014.9
20260506212624 7 94 1.6 17.7 0.00 0.00 0.00 72 1014.8
20260506211608 7 94 0.0 17.7 0.00 0.00 0.00 71 1014.6
20260506211108 7 94 0.0 17.7 0.00 0.00 0.00 70 1014.6
20260506210052 7 94 0.0 17.7 0.00 0.00 0.00 69 1014.5
20260506205552 8 94 0.0 17.7 0.00 0.00 0.00 69 1014.5
20260506205052 8 94 0.0 17.7 0.00 0.00 0.00 68 1014.4
20260506204552 8 172 1.6 17.7 0.00 0.00 0.00 68 1014.5
20260506204052 8 172 0.0 17.7 0.00 0.00 0.00 67 1014.3
20260506203551 8 172 0.0 17.7 0.00 0.00 0.00 67 1014.8
20260506203051 8 172 0.0 17.7 0.00 0.00 0.00 66 1014.7
20260506202035 8 175 0.0 17.7 0.00 0.00 0.00 65 1014.4
20260506201535 9 175 0.0 17.7 0.00 0.00 0.00 65 1014.4
20260506201034 9 175 0.0 17.7 0.00 0.00 0.00 64 1014.5
20260506200533 9 175 0.0 17.7 0.00 0.00 0.00 64 1014.4
20260506200033 9 175 0.0 17.7 0.00 0.00 0.00 63 1014.5
20260506195532 9 175 0.0 17.7 0.00 0.00 0.00 63 1014.5
20260506195031 10 210 0.0 17.7 0.00 0.00 0.00 63 1014.0
20260506194530 10 210 1.6 17.7 0.00 0.00 0.00 63 1014.3
20260506193515 10 211 0.0 17.7 0.00 0.00 0.00 62 1014.5
20260506193014 10 119 1.6 17.7 0.00 0.00 0.00 62 1014.3
20260506192513 10 139 1.6 17.7 0.00 0.00 0.00 62 1014.1
20260506192014 10 149 1.6 17.7 0.00 0.00 0.00 62 1014.3
20260506191513 10 228 0.0 17.7 0.00 0.00 0.00 61 1013.8
20260506191013 10 109 0.0 17.7 0.00 0.00 0.00 61 1013.9
20260506185957 10 111 1.6 17.7 0.00 0.00 0.00 60 1013.9
20260506184941 10 112 1.6 17.7 0.00 0.00 0.00 59 1013.6
20260506184441 10 120 1.6 17.7 0.00 0.00 0.00 59 1013.8
20260506183940 11 128 1.6 17.7 0.00 0.00 0.00 58 1013.6
20260506183439 11 128 3.2 17.7 0.00 0.00 0.00 58 1013.6
20260506182939 11 127 4.8 17.7 0.00 0.00 0.00 57 1013.6
20260506181923 11 136 3.2 17.7 0.00 0.00 0.00 56 1013.4
20260506181423 11 140 0.0 17.7 0.00 0.00 0.00 55 1013.3
20260506180922 11 106 4.8 17.7 0.00 0.00 0.00 55 1013.4
20260506180421 11 117 6.4 17.7 0.00 0.00 0.00 54 1013.4
20260506175921 12 127 4.8 17.7 0.00 0.00 0.00 54 1013.1
20260506175422 12 123 3.2 17.7 0.00 0.00 0.00 53 1013.1
20260506174920 12 127 4.8 17.7 0.00 0.00 0.00 52 1013.1
20260506174420 12 137 3.2 17.7 0.00 0.00 0.00 52 1012.8
20260506173920 12 134 4.8 17.7 0.00 0.00 0.00 51 1013.0
20260506173421 12 107 4.8 17.7 0.00 0.00 0.00 50 1013.2
20260506172921 12 88 1.6 17.7 0.00 0.00 0.00 50 1013.1
20260506172419 12 87 1.6 17.7 0.00 0.00 0.00 50 1013.0
20260506171919 12 116 4.8 17.7 0.00 0.00 0.00 49 1013.3
20260506171420 12 138 4.8 17.7 0.00 0.00 0.00 49 1012.8
20260506170918 12 138 3.2 17.7 0.00 0.00 0.00 49 1013.2
20260506165903 13 133 4.8 17.7 0.00 0.00 0.00 48 1013.2
20260506165402 13 113 3.2 17.7 0.00 0.00 0.00 48 1012.9
20260506164902 13 116 3.2 17.7 0.00 0.00 0.00 47 1013.1
20260506164401 13 116 4.8 17.7 0.00 0.00 0.00 47 1012.9
20260506163901 13 125 3.2 17.7 0.00 0.00 0.00 47 1012.9
20260506163401 13 135 1.6 17.7 0.00 0.00 0.00 48 1013.1
20260506162900 13 142 1.6 17.7 0.00 0.00 0.00 47 1012.9
20260506162359 13 119 3.2 17.7 0.00 0.00 0.00 46 1012.7
20260506161900 13 141 3.2 17.7 0.00 0.00 0.00 46 1012.9
20260506161358 13 95 3.2 17.7 0.00 0.00 0.00 46 1013.0
20260506160859 13 111 3.2 17.7 0.00 0.00 0.00 45 1012.8
20260506160359 13 95 3.2 17.7 0.00 0.00 0.00 44 1012.9
20260506155858 13 114 3.2 17.7 0.00 0.00 0.00 43 1013.0
20260506155358 13 102 3.2 17.7 0.00 0.00 0.00 43 1012.9
20260506154341 13 116 4.8 17.7 0.00 0.00 0.00 41 1012.8
20260506153841 13 111 4.8 17.7 0.00 0.00 0.00 41 1012.9
20260506153340 13 120 4.8 17.7 0.00 0.00 0.00 41 1012.7
20260506152839 13 72 1.6 17.7 0.00 0.00 0.00 40 1013.0
20260506152339 13 111 3.2 17.7 0.00 0.00 0.00 41 1012.8
20260506151837 13 91 3.2 17.7 0.00 0.00 0.00 40 1012.9
20260506151337 13 87 3.2 17.7 0.00 0.00 0.00 39 1012.9
20260506150837 13 91 0.0 17.7 0.00 0.00 0.00 38 1012.9
20260506150337 13 57 3.2 17.7 0.00 0.00 0.00 37 1012.8
20260506145836 13 109 3.2 17.7 0.00 0.00 0.00 37 1012.7
20260506145336 13 105 1.6 17.7 0.00 0.00 0.00 36 1012.9
20260506144835 13 148 3.2 17.7 0.00 0.00 0.00 37 1012.9
20260506144335 13 96 0.0 17.7 0.00 0.00 0.00 36 1012.9
20260506143835 13 104 0.0 17.7 0.00 0.00 0.00 36 1013.0
20260506143334 13 112 4.8 17.7 0.00 0.00 0.00 36 1012.5
20260506142834 13 90 1.6 17.7 0.00 0.00 0.00 36 1012.7
20260506142333 13 70 3.2 17.7 0.00 0.00 0.00 36 1012.9
20260506141834 13 96 3.2 17.7 0.00 0.00 0.00 37 1012.9
20260506140818 14 102 3.2 17.7 0.00 0.00 0.00 34 1013.1
20260506140317 14 27 1.6 17.7 0.00 0.00 0.00 34 1012.6
20260506135817 14 50 1.6 17.7 0.00 0.00 0.00 33 1012.7
20260506135317 14 58 1.6 17.7 0.00 0.00 0.00 35 1012.7
20260506134816 14 73 0.0 17.7 0.00 0.00 0.00 34 1012.9
20260506134315 14 81 1.6 17.7 0.00 0.00 0.00 34 1012.8
20260506133814 14 148 1.6 17.7 0.00 0.00 0.00 33 1012.6
20260506133313 14 43 1.6 17.7 0.00 0.00 0.00 33 1012.7
20260506132258 14 119 3.2 17.7 0.00 0.00 0.00 34 1012.9
20260506131758 14 168 0.0 17.7 0.00 0.00 0.00 33 1012.7
20260506131258 14 166 1.6 17.7 0.00 0.00 0.00 32 1012.8
20260506130758 14 70 1.6 17.7 0.00 0.00 0.00 33 1012.7
20260506130257 14 118 4.8 17.7 0.00 0.00 0.00 33 1012.5
20260506125241 14 120 4.8 17.7 0.00 0.00 0.00 32 1013.0
20260506124740 14 97 1.6 17.7 0.00 0.00 0.00 33 1013.1
20260506124240 13 215 1.6 17.7 0.00 0.00 0.00 32 1012.5
20260506123225 14 212 3.2 17.7 0.00 0.00 0.00 30 1012.8
20260506122724 15 134 3.2 17.7 0.00 0.00 0.00 30 1013.1
20260506122224 15 143 1.6 17.7 0.00 0.00 0.00 30 1012.9
20260506121724 15 53 0.0 17.7 0.00 0.00 0.00 31 1012.5
20260506121224 15 47 0.0 17.7 0.00 0.00 0.00 31 1012.6
20260506120724 15 75 0.0 17.7 0.00 0.00 0.00 31 1012.9
20260506120223 15 95 3.2 17.7 0.00 0.00 0.00 31 1012.9
20260506115722 15 85 3.2 17.7 0.00 0.00 0.00 31 1012.7
20260506115221 15 93 3.2 17.7 0.00 0.00 0.00 29 1012.9
20260506114720 16 49 3.2 17.7 0.00 0.00 0.00 29 1012.8
20260506114220 15 43 1.6 17.7 0.00 0.00 0.00 31 1013.0
20260506113204 15 98 1.6 17.7 0.00 0.00 0.00 29 1012.9
20260506112704 15 31 1.6 17.7 0.00 0.00 0.00 31 1013.2
20260506112203 15 47 3.2 17.7 0.00 0.00 0.00 29 1012.9
20260506111703 14 51 3.2 17.7 0.00 0.00 0.00 30 1013.2
20260506111202 14 72 1.6 17.7 0.00 0.00 0.00 29 1013.2
20260506110701 15 10 3.2 17.7 0.00 0.00 0.00 29 1013.1
20260506110200 15 87 1.6 17.7 0.00 0.00 0.00 30 1013.3
20260506105659 14 88 3.2 17.7 0.00 0.00 0.00 30 1013.4
20260506105158 14 151 3.2 17.7 0.00 0.00 0.00 28 1013.3
20260506104658 14 80 3.2 17.7 0.00 0.00 0.00 28 1013.3
20260506104158 14 123 4.8 17.7 0.00 0.00 0.00 27 1013.2
20260506103141 14 99 1.6 17.7 0.00 0.00 0.00 31 1013.1
20260506102641 13 28 1.6 17.7 0.00 0.00 0.00 31 1013.5
20260506102140 13 28 3.2 17.7 0.00 0.00 0.00 29 1013.5
20260506101124 13 91 1.6 17.7 0.00 0.00 0.00 30 1013.7
20260506100623 13 65 3.2 17.7 0.00 0.00 0.00 32 1013.8
20260506100123 13 330 3.2 17.7 0.00 0.00 0.00 29 1013.5
20260506095623 13 22 4.8 17.7 0.00 0.00 0.00 30 1013.6
20260506094606 14 70 1.6 17.7 0.00 0.00 0.00 30 1013.6
20260506093034 13 136 1.6 17.7 0.00 0.00 0.00 31 1013.8
20260506092534 13 95 8.0 17.7 0.00 0.00 0.00 31 1013.9
20260506092033 13 121 3.2 17.7 0.00 0.00 0.00 31 1013.6
20260506091016 13 2 3.2 17.7 0.00 0.00 0.00 31 1013.8
20260506090515 13 68 1.6 17.7 0.00 0.00 0.00 33 1014.2
20260506090014 13 33 1.6 17.7 0.00 0.00 0.00 32 1014.1
20260506085514 13 18 3.2 17.7 0.00 0.00 0.00 31 1014.0
20260506085013 13 12 1.6 17.7 0.00 0.00 0.00 33 1014.3
20260506084512 12 4 3.2 17.7 0.00 0.00 0.00 34 1014.0
20260506084012 12 11 1.6 17.7 0.00 0.00 0.00 33 1014.3
20260506083512 12 100 0.0 17.7 0.00 0.00 0.00 34 1014.2
20260506083012 12 81 3.2 17.7 0.00 0.00 0.00 32 1014.1
20260506082512 12 59 3.2 17.7 0.00 0.00 0.00 33 1014.1
20260506081455 12 32 4.8 17.7 0.00 0.00 0.00 33 1014.2
20260506080955 12 26 4.8 17.7 0.00 0.00 0.00 33 1014.3
20260506080454 11 101 3.2 17.7 0.00 0.00 0.00 33 1014.4